TimePST,TemperatureF,Dew PointF,Humidity,Sea Level PressureIn,VisibilityMPH,Wind Direction,Wind SpeedMPH,Gust SpeedMPH,PrecipitationIn,Events,Conditions,WindDirDegrees,DateUTC
12:53 AM,44.1,19.9,38,30.41,10.0,NNW,3.5,-,N/A,,Clear,330,2013-02-16 08:53:00
1:53 AM,44.1,19.0,37,30.41,10.0,NW,3.5,-,N/A,,Clear,320,2013-02-16 09:53:00
2:53 AM,44.1,19.0,37,30.40,10.0,NNW,5.8,-,N/A,,Clear,330,2013-02-16 10:53:00
3:53 AM,42.1,19.0,40,30.39,10.0,NW,4.6,-,N/A,,Clear,310,2013-02-16 11:53:00
4:53 AM,39.9,19.0,43,30.39,10.0,NW,3.5,-,N/A,,Clear,310,2013-02-16 12:53:00
5:53 AM,42.1,19.0,40,30.39,10.0,WNW,3.5,-,N/A,,Clear,300,2013-02-16 13:53:00
6:53 AM,39.0,19.0,45,30.41,10.0,Calm,Calm,-,N/A,,Clear,0,2013-02-16 14:53:00
7:53 AM,46.0,21.9,39,30.41,10.0,Calm,Calm,-,N/A,,Clear,0,2013-02-16 15:53:00
8:53 AM,52.0,17.1,25,30.39,10.0,Calm,Calm,-,N/A,,Clear,0,2013-02-16 16:53:00
9:53 AM,55.9,19.0,24,30.38,10.0,ESE,3.5,-,N/A,,Clear,120,2013-02-16 17:53:00
10:53 AM,57.0,18.0,22,30.35,10.0,SE,4.6,-,N/A,,Clear,130,2013-02-16 18:53:00
11:53 AM,60.1,19.0,20,30.30,10.0,South,4.6,-,N/A,,Clear,180,2013-02-16 19:53:00
12:53 PM,62.1,18.0,18,30.26,10.0,South,3.5,-,N/A,,Clear,180,2013-02-16 20:53:00
1:53 PM,63.0,17.1,17,30.21,10.0,SSE,4.6,-,N/A,,Clear,160,2013-02-16 21:53:00
2:53 PM,64.9,14.0,14,30.17,10.0,SSE,5.8,-,N/A,,Clear,150,2013-02-16 22:53:00
3:53 PM,64.9,12.9,13,30.14,10.0,Calm,Calm,-,N/A,,Clear,0,2013-02-16 23:53:00
4:53 PM,64.0,12.0,13,30.12,10.0,Calm,Calm,-,N/A,,Clear,0,2013-02-17 00:53:00
5:53 PM,61.0,14.0,16,30.12,10.0,Calm,Calm,-,N/A,,Clear,0,2013-02-17 01:53:00
6:53 PM,55.9,18.0,23,30.12,10.0,WNW,6.9,-,N/A,,Clear,300,2013-02-17 02:53:00
7:53 PM,54.0,19.9,26,30.11,10.0,North,5.8,-,N/A,,Clear,350,2013-02-17 03:53:00
8:53 PM,50.0,21.0,32,30.09,10.0,Calm,Calm,-,N/A,,Clear,0,2013-02-17 04:53:00
9:53 PM,50.0,21.9,33,30.07,10.0,NW,4.6,-,N/A,,Clear,310,2013-02-17 05:53:00
10:53 PM,48.0,21.9,36,30.05,10.0,NW,5.8,-,N/A,,Clear,310,2013-02-17 06:53:00
11:53 PM,46.9,21.0,36,30.04,10.0,WNW,4.6,-,N/A,,Clear,290,2013-02-17 07:53:00